C/2015 R3 ( PanSTARRS )

Japanese version
Home page
Updated on November 13, 2016

---------------------------------------------------------------------

* Profile

Discovery Date September 12, 2015
Magnitude 22.3 mag
Discoverer Pan-STARRS 1 telescope (Haleakala)

* Pictures

* Orbital Elements

Epoch 2014 Jan. 23.0 TT = JDT 2456680.5
T 2014 Feb. 11.75592 TT                                 MPCW
q   4.9031334            (2000.0)            P               Q
z  +0.0003207      Peri.  272.00618     +0.09433319     +0.80176569
 +/-0.0000094      Node    36.43061     +0.33187932     +0.53355456
e   0.9984276      Incl.   83.59883     -0.93859329     +0.26924211
From 31 observations 2015 Sept. 12-2016 Sept. 28, mean residual 0".5.

* Magnitudes Graph

        m1 = 9.0 + 5 log d + 10.0 log r

---------------------------------------------------------------------

The orbital elements are published on M.P.E.C. 2016-U66.
The magnitudes graphs are made with Comet for Windows.

---------------------------------------------------------------------

Copyright(C) Seiichi Yoshida (comet@aerith.net). All rights reserved.